owner,sensor,date,latitude,longitude,vertical_datum,direction_of_sea_water_velocity,sea_water_speed,upward_sea_water_velocity,qcFlag 
TABS,ioos:station:wmo:42049:1,2017-11-01T00:00:00Z,28.3507,-96.0058,2.0,45.86033556,14.12958598,-99999.0,'11111222,11111222,99999999' 
TABS,ioos:station:wmo:42049:1,2017-11-01T00:30:00Z,28.3507,-96.0058,2.0,47.24584254,13.71426265,-99999.0,'11111222,11111222,99999999' 
TABS,ioos:station:wmo:42049:1,2017-11-01T01:00:00Z,28.3507,-96.0058,2.0,51.75134737,13.71397098,-99999.0,'11111222,11111222,99999999' 
TABS,ioos:station:wmo:42049:1,2017-11-01T01:30:00Z,28.3507,-96.0058,2.0,42.90218695,12.94165754,-99999.0,'11111222,11111222,99999999' 
TABS,ioos:station:wmo:42049:1,2017-11-01T02:00:00Z,28.3507,-96.0058,2.0,44.40554912,14.99147091,-99999.0,'11111222,11111222,99999999' 
TABS,ioos:station:wmo:42049:1,2017-11-01T02:30:00Z,28.3507,-96.0058,2.0,39.1839172,12.97858236,-99999.0,'11111222,11111222,99999999' 
TABS,ioos:station:wmo:42049:1,2017-11-01T03:00:00Z,28.3507,-96.0058,2.0,40.74323078,15.33703035,-99999.0,'11111222,11111222,99999999' 
TABS,ioos:station:wmo:42049:1,2017-11-01T03:30:00Z,28.3507,-96.0058,2.0,38.91311113,14.13698695,-99999.0,'11111222,11111222,99999999' 
TABS,ioos:station:wmo:42049:1,2017-11-01T04:00:00Z,28.3507,-96.0058,2.0,34.57549192,16.33509718,-99999.0,'11111222,11111222,99999999' 
TABS,ioos:station:wmo:42049:1,2017-11-01T04:30:00Z,28.3507,-96.0058,2.0,38.09875668,14.82940997,-99999.0,'11111222,11111222,99999999' 
TABS,ioos:station:wmo:42049:1,2017-11-01T05:00:00Z,28.3507,-96.0058,2.0,32.42905781,16.6339412,-99999.0,'11111222,11111222,99999999' 
TABS,ioos:station:wmo:42049:1,2017-11-01T05:30:00Z,28.3507,-96.0058,2.0,38.89355974,16.08603121,-99999.0,'11111222,11111222,99999999' 
TABS,ioos:station:wmo:42049:1,2017-11-01T06:00:00Z,28.3507,-96.0058,2.0,37.90389009,13.96627366,-99999.0,'11111222,11111222,99999999' 
TABS,ioos:station:wmo:42049:1,2017-11-01T06:30:00Z,28.3507,-96.0058,2.0,44.56318707,13.9091948,-99999.0,'11111222,11111222,99999999' 
TABS,ioos:station:wmo:42049:1,2017-11-01T07:00:00Z,28.3507,-96.0058,2.0,35.15353688,17.15969988,-99999.0,'11111222,11111222,99999999' 
TABS,ioos:station:wmo:42049:1,2017-11-01T07:30:00Z,28.3507,-96.0058,2.0,33.59057636,12.7608973,-99999.0,'11111222,11111222,99999999' 
TABS,ioos:station:wmo:42049:1,2017-11-01T08:00:00Z,28.3507,-96.0058,2.0,35.45703127,19.79001769,-99999.0,'11111222,11111222,99999999' 
TABS,ioos:station:wmo:42049:1,2017-11-01T08:30:00Z,28.3507,-96.0058,2.0,41.84861633,19.03581887,-99999.0,'11111222,11111222,99999999' 
TABS,ioos:station:wmo:42049:1,2017-11-01T09:00:00Z,28.3507,-96.0058,2.0,40.63728516,19.05517515,-99999.0,'11111222,11111222,99999999' 
TABS,ioos:station:wmo:42049:1,2017-11-01T09:30:00Z,28.3507,-96.0058,2.0,45.41679349,19.44595074,-99999.0,'11111222,11111222,99999999' 
TABS,ioos:station:wmo:42049:1,2017-11-01T10:00:00Z,28.3507,-96.0058,2.0,39.29152928,20.11796461,-99999.0,'11111222,11111222,99999999' 
TABS,ioos:station:wmo:42049:1,2017-11-01T10:30:00Z,28.3507,-96.0058,2.0,41.73869628,20.38354729,-99999.0,'11111222,11111222,99999999' 
TABS,ioos:station:wmo:42049:1,2017-11-01T11:00:00Z,28.3507,-96.0058,2.0,37.865298,20.4950921,-99999.0,'11111222,11111222,99999999' 
TABS,ioos:station:wmo:42049:1,2017-11-01T11:30:00Z,28.3507,-96.0058,2.0,49.25074986,25.18571023,-99999.0,'11111222,11111222,99999999' 
TABS,ioos:station:wmo:42049:1,2017-11-01T12:00:00Z,28.3507,-96.0058,2.0,51.08737985,17.3370182,-99999.0,'11111222,11111222,99999999' 
TABS,ioos:station:wmo:42049:1,2017-11-01T12:30:00Z,28.3507,-96.0058,2.0,50.91905896,21.66813328,-99999.0,'11111222,11111222,99999999' 
TABS,ioos:station:wmo:42049:1,2017-11-01T13:00:00Z,28.3507,-96.0058,2.0,54.26580338,23.71465791,-99999.0,'11111222,11111222,99999999' 
TABS,ioos:station:wmo:42049:1,2017-11-01T13:30:00Z,28.3507,-96.0058,2.0,56.97954592,21.59872681,-99999.0,'11111222,11111222,99999999' 
TABS,ioos:station:wmo:42049:1,2017-11-01T14:00:00Z,28.3507,-96.0058,2.0,62.65018818,22.8547588,-99999.0,'11111222,11111222,99999999' 
TABS,ioos:station:wmo:42049:1,2017-11-01T14:30:00Z,28.3507,-96.0058,2.0,57.56775311,21.48039339,-99999.0,'11111222,11111222,99999999' 
TABS,ioos:station:wmo:42049:1,2017-11-01T15:00:00Z,28.3507,-96.0058,2.0,61.45317633,23.01843609,-99999.0,'11111222,11111222,99999999' 
TABS,ioos:station:wmo:42049:1,2017-11-01T15:30:00Z,28.3507,-96.0058,2.0,58.64926167,18.27873628,-99999.0,'11111222,11111222,99999999' 
TABS,ioos:station:wmo:42049:1,2017-11-01T16:00:00Z,28.3507,-96.0058,2.0,63.76848043,20.74659008,-99999.0,'11111222,11111222,99999999' 
TABS,ioos:station:wmo:42049:1,2017-11-01T16:30:00Z,28.3507,-96.0058,2.0,67.10375426,20.40792983,-99999.0,'11111222,11111222,99999999' 
TABS,ioos:station:wmo:42049:1,2017-11-01T17:00:00Z,28.3507,-96.0058,2.0,72.60105242,19.76430368,-99999.0,'11111222,11111222,99999999' 
TABS,ioos:station:wmo:42049:1,2017-11-01T17:30:00Z,28.3507,-96.0058,2.0,72.88221677,19.5353884,-99999.0,'11111222,11111222,99999999' 
TABS,ioos:station:wmo:42049:1,2017-11-01T18:00:00Z,28.3507,-96.0058,2.0,79.46616282,19.69186634,-99999.0,'11111222,11111222,99999999' 
TABS,ioos:station:wmo:42049:1,2017-11-01T18:30:00Z,28.3507,-96.0058,2.0,86.28181381,17.88765217,-99999.0,'11111222,11111222,99999999' 
TABS,ioos:station:wmo:42049:1,2017-11-01T19:00:00Z,28.3507,-96.0058,2.0,83.84817101,16.79672587,-99999.0,'11111222,11111222,99999999' 
TABS,ioos:station:wmo:42049:1,2017-11-01T19:30:00Z,28.3507,-96.0058,2.0,78.8305242,17.60343716,-99999.0,'11111222,11111222,99999999' 
TABS,ioos:station:wmo:42049:1,2017-11-01T20:00:00Z,28.3507,-96.0058,2.0,74.56540117,16.79574351,-99999.0,'11111222,11111222,99999999' 
TABS,ioos:station:wmo:42049:1,2017-11-01T20:30:00Z,28.3507,-96.0058,2.0,84.97401524,16.32276018,-99999.0,'11111222,11111222,99999999' 
TABS,ioos:station:wmo:42049:1,2017-11-01T21:00:00Z,28.3507,-96.0058,2.0,88.15347631,17.06886347,-99999.0,'11111222,11111222,99999999' 
TABS,ioos:station:wmo:42049:1,2017-11-01T21:30:00Z,28.3507,-96.0058,2.0,88.5860057,16.61505943,-99999.0,'11111222,11111222,99999999' 
TABS,ioos:station:wmo:42049:1,2017-11-01T22:00:00Z,28.3507,-96.0058,2.0,94.63164696,16.22297753,-99999.0,'11111222,11111222,99999999' 
TABS,ioos:station:wmo:42049:1,2017-11-01T22:30:00Z,28.3507,-96.0058,2.0,94.88860874,17.13232325,-99999.0,'11111222,11111222,99999999' 
TABS,ioos:station:wmo:42049:1,2017-11-01T23:00:00Z,28.3507,-96.0058,2.0,92.93764533,14.82948752,-99999.0,'11111222,11111222,99999999' 
TABS,ioos:station:wmo:42049:1,2017-11-01T23:30:00Z,28.3507,-96.0058,2.0,87.96945946,11.00691147,-99999.0,'11111222,11111222,99999999' 
TABS,ioos:station:wmo:42049:1,2017-11-02T00:00:00Z,28.3507,-96.0058,2.0,76.75687398,12.44084402,-99999.0,'11111222,11111222,99999999' 
TABS,ioos:station:wmo:42049:1,2017-11-02T00:30:00Z,28.3507,-96.0058,2.0,63.28343552,10.14283984,-99999.0,'11111222,11111222,99999999' 
TABS,ioos:station:wmo:42049:1,2017-11-02T01:00:00Z,28.3507,-96.0058,2.0,54.32248135,9.996164264,-99999.0,'11133222,11111222,99999999' 
TABS,ioos:station:wmo:42049:1,2017-11-02T01:30:00Z,28.3507,-96.0058,2.0,47.68387411,11.77917654,-99999.0,'11111222,11111222,99999999' 
TABS,ioos:station:wmo:42049:1,2017-11-02T02:00:00Z,28.3507,-96.0058,2.0,48.51234815,9.464723979,-99999.0,'11133222,11111222,99999999' 
TABS,ioos:station:wmo:42049:1,2017-11-02T02:30:00Z,28.3507,-96.0058,2.0,38.70421764,12.12221102,-99999.0,'11111222,11111222,99999999' 
TABS,ioos:station:wmo:42049:1,2017-11-02T03:00:00Z,28.3507,-96.0058,2.0,35.78026735,13.46043461,-99999.0,'11111222,11111222,99999999' 
TABS,ioos:station:wmo:42049:1,2017-11-02T03:30:00Z,28.3507,-96.0058,2.0,32.66273029,14.69359725,-99999.0,'11111222,11111222,99999999' 
TABS,ioos:station:wmo:42049:1,2017-11-02T04:00:00Z,28.3507,-96.0058,2.0,33.6602746,15.93099181,-99999.0,'11111222,11111222,99999999' 
TABS,ioos:station:wmo:42049:1,2017-11-02T04:30:00Z,28.3507,-96.0058,2.0,44.80169863,18.37781543,-99999.0,'11111222,11111222,99999999' 
TABS,ioos:station:wmo:42049:1,2017-11-02T05:00:00Z,28.3507,-96.0058,2.0,53.96069164,17.5238409,-99999.0,'11111222,11111222,99999999' 
TABS,ioos:station:wmo:42049:1,2017-11-02T05:30:00Z,28.3507,-96.0058,2.0,50.34240169,23.31559349,-99999.0,'11111222,11111222,99999999' 
TABS,ioos:station:wmo:42049:1,2017-11-02T06:00:00Z,28.3507,-96.0058,2.0,58.613626,19.52736029,-99999.0,'11111222,11111222,99999999' 
TABS,ioos:station:wmo:42049:1,2017-11-02T06:30:00Z,28.3507,-96.0058,2.0,63.07422656,22.0167618,-99999.0,'11111222,11111222,99999999' 
TABS,ioos:station:wmo:42049:1,2017-11-02T07:00:00Z,28.3507,-96.0058,2.0,64.60547422,23.64464421,-99999.0,'11111222,11111222,99999999' 
TABS,ioos:station:wmo:42049:1,2017-11-02T07:30:00Z,28.3507,-96.0058,2.0,66.47772277,21.14723859,-99999.0,'11111222,11111222,99999999' 
TABS,ioos:station:wmo:42049:1,2017-11-02T08:00:00Z,28.3507,-96.0058,2.0,62.96920295,23.10381787,-99999.0,'11111222,11111222,99999999' 
TABS,ioos:station:wmo:42049:1,2017-11-02T08:30:00Z,28.3507,-96.0058,2.0,66.62268826,18.0954276,-99999.0,'11111222,11111222,99999999' 
TABS,ioos:station:wmo:42049:1,2017-11-02T09:00:00Z,28.3507,-96.0058,2.0,59.80901865,15.76901392,-99999.0,'11111222,11111222,99999999' 
TABS,ioos:station:wmo:42049:1,2017-11-02T09:30:00Z,28.3507,-96.0058,2.0,69.9404707,14.72315863,-99999.0,'11111222,11111222,99999999' 
TABS,ioos:station:wmo:42049:1,2017-11-02T10:00:00Z,28.3507,-96.0058,2.0,64.2131722,13.17165517,-99999.0,'11111222,11111222,99999999' 
TABS,ioos:station:wmo:42049:1,2017-11-02T10:30:00Z,28.3507,-96.0058,2.0,73.1325438,18.26582601,-99999.0,'11111222,11111222,99999999' 
TABS,ioos:station:wmo:42049:1,2017-11-02T11:00:00Z,28.3507,-96.0058,2.0,72.38936374,18.24506783,-99999.0,'11111222,11111222,99999999' 
TABS,ioos:station:wmo:42049:1,2017-11-02T11:30:00Z,28.3507,-96.0058,2.0,79.82545552,15.34125484,-99999.0,'11111222,11111222,99999999' 
TABS,ioos:station:wmo:42049:1,2017-11-02T12:00:00Z,28.3507,-96.0058,2.0,74.83465166,11.20004464,-99999.0,'11111222,11111222,99999999' 
TABS,ioos:station:wmo:42049:1,2017-11-02T12:30:00Z,28.3507,-96.0058,2.0,71.16562913,12.70001575,-99999.0,'11111222,11111222,99999999' 
TABS,ioos:station:wmo:42049:1,2017-11-02T13:00:00Z,28.3507,-96.0058,2.0,67.04442522,12.07636121,-99999.0,'11111222,11111222,99999999' 
TABS,ioos:station:wmo:42049:1,2017-11-02T13:30:00Z,28.3507,-96.0058,2.0,82.96086399,11.58733792,-99999.0,'11111222,11111222,99999999' 
TABS,ioos:station:wmo:42049:1,2017-11-02T14:00:00Z,28.3507,-96.0058,2.0,83.24925793,10.63372465,-99999.0,'11111222,11111222,99999999' 
TABS,ioos:station:wmo:42049:1,2017-11-02T14:30:00Z,28.3507,-96.0058,2.0,83.25047797,9.274276252,-99999.0,'11133222,11111222,99999999' 
TABS,ioos:station:wmo:42049:1,2017-11-02T15:00:00Z,28.3507,-96.0058,2.0,75.63545114,10.15755876,-99999.0,'11111222,11111222,99999999' 
TABS,ioos:station:wmo:42049:1,2017-11-02T15:30:00Z,28.3507,-96.0058,2.0,78.44680182,5.542291945,-99999.0,'11133222,11111222,99999999' 
TABS,ioos:station:wmo:42049:1,2017-11-02T16:00:00Z,28.3507,-96.0058,2.0,67.68286567,7.426257469,-99999.0,'11133222,11111222,99999999' 
TABS,ioos:station:wmo:42049:1,2017-11-02T16:30:00Z,28.3507,-96.0058,2.0,61.99248313,6.750592567,-99999.0,'11133222,11111222,99999999' 
TABS,ioos:station:wmo:42049:1,2017-11-02T17:00:00Z,28.3507,-96.0058,2.0,72.48616679,4.917977226,-99999.0,'11133222,11111222,99999999' 
TABS,ioos:station:wmo:42049:1,2017-11-02T17:30:00Z,28.3507,-96.0058,2.0,76.10285618,2.997749156,-99999.0,'11133222,11111222,99999999' 
TABS,ioos:station:wmo:42049:1,2017-11-02T18:00:00Z,28.3507,-96.0058,2.0,59.20561446,4.062819218,-99999.0,'11133222,11111222,99999999' 
TABS,ioos:station:wmo:42049:1,2017-11-02T18:30:00Z,28.3507,-96.0058,2.0,70.90655265,2.201090639,-99999.0,'11133222,11111222,99999999' 
TABS,ioos:station:wmo:42049:1,2017-11-02T19:00:00Z,28.3507,-96.0058,2.0,54.93931605,6.145063059,-99999.0,'11133222,11111222,99999999' 
TABS,ioos:station:wmo:42049:1,2017-11-02T19:30:00Z,28.3507,-96.0058,2.0,45.5989926,4.059014659,-99999.0,'11133222,11111222,99999999' 
TABS,ioos:station:wmo:42049:1,2017-11-02T20:00:00Z,28.3507,-96.0058,2.0,61.55042644,3.127714821,-99999.0,'11133222,11111222,99999999' 
TABS,ioos:station:wmo:42049:1,2017-11-02T20:30:00Z,28.3507,-96.0058,2.0,54.8658891,2.971363323,-99999.0,'11133222,11111222,99999999' 
TABS,ioos:station:wmo:42049:1,2017-11-02T21:00:00Z,28.3507,-96.0058,2.0,103.926554,2.534501923,-99999.0,'11133222,11111222,99999999' 
TABS,ioos:station:wmo:42049:1,2017-11-02T21:30:00Z,28.3507,-96.0058,2.0,94.85659258,1.535512944,-99999.0,'11133222,11111222,99999999' 
TABS,ioos:station:wmo:42049:1,2017-11-02T22:00:00Z,28.3507,-96.0058,2.0,140.6671672,0.930859818,-99999.0,'11133222,11111222,99999999' 
TABS,ioos:station:wmo:42049:1,2017-11-02T22:30:00Z,28.3507,-96.0058,2.0,192.7572919,1.086830254,-99999.0,'11133222,11111222,99999999' 
TABS,ioos:station:wmo:42049:1,2017-11-02T23:00:00Z,28.3507,-96.0058,2.0,54.56676885,2.552802382,-99999.0,'11133222,11111222,99999999' 
TABS,ioos:station:wmo:42049:1,2017-11-02T23:30:00Z,28.3507,-96.0058,2.0,36.50882481,2.538050433,-99999.0,'11133222,11111222,99999999' 
TABS,ioos:station:wmo:42049:1,2017-11-03T00:00:00Z,28.3507,-96.0058,2.0,351.0813027,2.77353565,-99999.0,'11133222,11111222,99999999' 
TABS,ioos:station:wmo:42049:1,2017-11-03T00:30:00Z,28.3507,-96.0058,2.0,3.053085834,0.751065909,-99999.0,'11133222,11111222,99999999' 
TABS,ioos:station:wmo:42049:1,2017-11-03T01:00:00Z,28.3507,-96.0058,2.0,270.0004209,0.93,-99999.0,'11133222,11111222,99999999' 
TABS,ioos:station:wmo:42049:1,2017-11-03T01:30:00Z,28.3507,-96.0058,2.0,192.528568,0.460977223,-99999.0,'11133222,11111222,99999999' 
TABS,ioos:station:wmo:42049:1,2017-11-03T02:00:00Z,28.3507,-96.0058,2.0,323.130399,2.3,-99999.0,'11133222,11111222,99999999' 
TABS,ioos:station:wmo:42049:1,2017-11-03T02:30:00Z,28.3507,-96.0058,2.0,310.8854162,1.970837385,-99999.0,'11133222,11111222,99999999' 
TABS,ioos:station:wmo:42049:1,2017-11-03T03:00:00Z,28.3507,-96.0058,2.0,301.1228183,3.714673606,-99999.0,'11133222,11111222,99999999' 
TABS,ioos:station:wmo:42049:1,2017-11-03T03:30:00Z,28.3507,-96.0058,2.0,273.021136,3.795273376,-99999.0,'11133222,11111222,99999999' 
TABS,ioos:station:wmo:42049:1,2017-11-03T04:00:00Z,28.3507,-96.0058,2.0,286.7126686,4.20773098,-99999.0,'11133222,11111222,99999999' 
TABS,ioos:station:wmo:42049:1,2017-11-03T04:30:00Z,28.3507,-96.0058,2.0,263.60255,5.564647338,-99999.0,'11133222,11111222,99999999' 
TABS,ioos:station:wmo:42049:1,2017-11-03T05:00:00Z,28.3507,-96.0058,2.0,270.6774428,6.770472657,-99999.0,'11133222,11111222,99999999' 
TABS,ioos:station:wmo:42049:1,2017-11-03T05:30:00Z,28.3507,-96.0058,2.0,255.6443537,6.534011019,-99999.0,'11133222,11111222,99999999' 
TABS,ioos:station:wmo:42049:1,2017-11-03T06:00:00Z,28.3507,-96.0058,2.0,262.9397621,5.451330113,-99999.0,'11133222,11111222,99999999' 
TABS,ioos:station:wmo:42049:1,2017-11-03T06:30:00Z,28.3507,-96.0058,2.0,251.4896464,7.244784331,-99999.0,'11133222,11111222,99999999' 
TABS,ioos:station:wmo:42049:1,2017-11-03T07:00:00Z,28.3507,-96.0058,2.0,248.7925231,7.519208735,-99999.0,'11133222,11111222,99999999' 
TABS,ioos:station:wmo:42049:1,2017-11-03T07:30:00Z,28.3507,-96.0058,2.0,260.786446,7.182659675,-99999.0,'11133222,11111222,99999999' 
TABS,ioos:station:wmo:42049:1,2017-11-03T08:00:00Z,28.3507,-96.0058,2.0,267.4007095,7.057258675,-99999.0,'11133222,11111222,99999999' 
TABS,ioos:station:wmo:42049:1,2017-11-03T08:30:00Z,28.3507,-96.0058,2.0,252.4778656,7.539827584,-99999.0,'11133222,11111222,99999999' 
TABS,ioos:station:wmo:42049:1,2017-11-03T09:00:00Z,28.3507,-96.0058,2.0,239.5207708,8.714155151,-99999.0,'11133222,11111222,99999999' 
TABS,ioos:station:wmo:42049:1,2017-11-03T09:30:00Z,28.3507,-96.0058,2.0,239.0151206,9.459862578,-99999.0,'11133222,11111222,99999999' 
TABS,ioos:station:wmo:42049:1,2017-11-03T10:00:00Z,28.3507,-96.0058,2.0,244.4343597,8.458096713,-99999.0,'11133222,11111222,99999999' 
TABS,ioos:station:wmo:42049:1,2017-11-03T10:30:00Z,28.3507,-96.0058,2.0,242.0280599,8.016483019,-99999.0,'11133222,11111222,99999999' 
TABS,ioos:station:wmo:42049:1,2017-11-03T11:00:00Z,28.3507,-96.0058,2.0,240.7642608,8.927132798,-99999.0,'11133222,11111222,99999999' 
TABS,ioos:station:wmo:42049:1,2017-11-03T11:30:00Z,28.3507,-96.0058,2.0,239.5341054,9.269848974,-99999.0,'11133222,11111222,99999999' 
TABS,ioos:station:wmo:42049:1,2017-11-03T12:00:00Z,28.3507,-96.0058,2.0,236.632163,10.34532261,-99999.0,'11111222,11111222,99999999' 
TABS,ioos:station:wmo:42049:1,2017-11-03T12:30:00Z,28.3507,-96.0058,2.0,234.5983422,13.18833196,-99999.0,'11111222,11111222,99999999' 
TABS,ioos:station:wmo:42049:1,2017-11-03T13:00:00Z,28.3507,-96.0058,2.0,244.6227738,15.09670494,-99999.0,'11111222,11111222,99999999' 
TABS,ioos:station:wmo:42049:1,2017-11-03T13:30:00Z,28.3507,-96.0058,2.0,238.7527227,15.61513689,-99999.0,'11111222,11111222,99999999' 
TABS,ioos:station:wmo:42049:1,2017-11-03T14:00:00Z,28.3507,-96.0058,2.0,236.2540713,14.31127178,-99999.0,'11111222,11111222,99999999' 
TABS,ioos:station:wmo:42049:1,2017-11-03T14:30:00Z,28.3507,-96.0058,2.0,252.9916719,13.33313542,-99999.0,'11111222,11111222,99999999' 
TABS,ioos:station:wmo:42049:1,2017-11-03T15:00:00Z,28.3507,-96.0058,2.0,247.5226635,14.80466143,-99999.0,'11111222,11111222,99999999' 
TABS,ioos:station:wmo:42049:1,2017-11-03T15:30:00Z,28.3507,-96.0058,2.0,250.86814,15.34766758,-99999.0,'11111222,11111222,99999999' 
TABS,ioos:station:wmo:42049:1,2017-11-03T16:00:00Z,28.3507,-96.0058,2.0,260.833511,14.6267734,-99999.0,'11111222,11111222,99999999' 
TABS,ioos:station:wmo:42049:1,2017-11-03T16:30:00Z,28.3507,-96.0058,2.0,260.6714307,14.74498559,-99999.0,'11111222,11111222,99999999' 
TABS,ioos:station:wmo:42049:1,2017-11-03T17:00:00Z,28.3507,-96.0058,2.0,259.3146917,12.40508364,-99999.0,'11111222,11111222,99999999' 
TABS,ioos:station:wmo:42049:1,2017-11-03T17:30:00Z,28.3507,-96.0058,2.0,258.5386683,10.41772528,-99999.0,'11111222,11111222,99999999' 
TABS,ioos:station:wmo:42049:1,2017-11-03T18:00:00Z,28.3507,-96.0058,2.0,257.3884005,11.31293507,-99999.0,'11111222,11111222,99999999' 
TABS,ioos:station:wmo:42049:1,2017-11-03T20:30:00Z,28.3507,-96.0058,2.0,272.8023372,7.569048817,-99999.0,'11133222,11111222,99999999' 
TABS,ioos:station:wmo:42049:1,2017-11-03T21:00:00Z,28.3507,-96.0058,2.0,264.2222679,8.54339511,-99999.0,'11133222,11111222,99999999' 
TABS,ioos:station:wmo:42049:1,2017-11-03T21:30:00Z,28.3507,-96.0058,2.0,260.737744,7.518011705,-99999.0,'11133222,11111222,99999999' 
TABS,ioos:station:wmo:42049:1,2017-11-03T22:00:00Z,28.3507,-96.0058,2.0,248.4843713,8.179981663,-99999.0,'11133222,11111222,99999999' 
TABS,ioos:station:wmo:42049:1,2017-11-03T22:30:00Z,28.3507,-96.0058,2.0,245.8864295,10.03571622,-99999.0,'11111222,11111222,99999999' 
TABS,ioos:station:wmo:42049:1,2017-11-03T23:00:00Z,28.3507,-96.0058,2.0,248.8712505,9.959528101,-99999.0,'11133222,11111222,99999999' 
TABS,ioos:station:wmo:42049:1,2017-11-03T23:30:00Z,28.3507,-96.0058,2.0,241.6066261,11.35606006,-99999.0,'11111222,11111222,99999999' 
TABS,ioos:station:wmo:42049:1,2017-11-04T00:00:00Z,28.3507,-96.0058,2.0,255.26015,7.114105706,-99999.0,'11133222,11111222,99999999' 
TABS,ioos:station:wmo:42049:1,2017-11-04T00:30:00Z,28.3507,-96.0058,2.0,266.0566992,8.580308852,-99999.0,'11133222,11111222,99999999' 
TABS,ioos:station:wmo:42049:1,2017-11-04T01:00:00Z,28.3507,-96.0058,2.0,246.3210018,7.992903102,-99999.0,'11133222,11111222,99999999' 
TABS,ioos:station:wmo:42049:1,2017-11-04T01:30:00Z,28.3507,-96.0058,2.0,249.7141216,7.931966969,-99999.0,'11133222,11111222,99999999' 
TABS,ioos:station:wmo:42049:1,2017-11-04T02:00:00Z,28.3507,-96.0058,2.0,257.1491626,7.149055882,-99999.0,'11133222,11111222,99999999' 
TABS,ioos:station:wmo:42049:1,2017-11-04T02:30:00Z,28.3507,-96.0058,2.0,266.8119018,8.092521239,-99999.0,'11133222,11111222,99999999' 
TABS,ioos:station:wmo:42049:1,2017-11-04T03:00:00Z,28.3507,-96.0058,2.0,268.2818854,8.673897624,-99999.0,'11133222,11111222,99999999' 
TABS,ioos:station:wmo:42049:1,2017-11-04T03:30:00Z,28.3507,-96.0058,2.0,275.8056757,6.623971618,-99999.0,'11133222,11111222,99999999' 
TABS,ioos:station:wmo:42049:1,2017-11-04T04:00:00Z,28.3507,-96.0058,2.0,303.2663542,6.745339132,-99999.0,'11133222,11111222,99999999' 
TABS,ioos:station:wmo:42049:1,2017-11-04T04:30:00Z,28.3507,-96.0058,2.0,306.8852824,7.614000263,-99999.0,'11133222,11111222,99999999' 
TABS,ioos:station:wmo:42049:1,2017-11-04T05:00:00Z,28.3507,-96.0058,2.0,309.0390257,7.557413579,-99999.0,'11133222,11111222,99999999' 
TABS,ioos:station:wmo:42049:1,2017-11-04T05:30:00Z,28.3507,-96.0058,2.0,318.7390719,7.157010549,-99999.0,'11133222,11111222,99999999' 
TABS,ioos:station:wmo:42049:1,2017-11-04T06:00:00Z,28.3507,-96.0058,2.0,330.5401917,5.489845171,-99999.0,'11133222,11111222,99999999' 
TABS,ioos:station:wmo:42049:1,2017-11-04T06:30:00Z,28.3507,-96.0058,2.0,320.2534871,7.491441784,-99999.0,'11133222,11111222,99999999' 
TABS,ioos:station:wmo:42049:1,2017-11-04T07:00:00Z,28.3507,-96.0058,2.0,328.5707183,4.219004622,-99999.0,'11133222,11111222,99999999' 
TABS,ioos:station:wmo:42049:1,2017-11-04T07:30:00Z,28.3507,-96.0058,2.0,349.0808617,5.754181089,-99999.0,'11133222,11111222,99999999' 
TABS,ioos:station:wmo:42049:1,2017-11-04T08:00:00Z,28.3507,-96.0058,2.0,53.93067445,3.006293399,-99999.0,'11133222,11111222,99999999' 
TABS,ioos:station:wmo:42049:1,2017-11-04T08:30:00Z,28.3507,-96.0058,2.0,36.80674677,3.622002209,-99999.0,'11133222,11111222,99999999' 
TABS,ioos:station:wmo:42049:1,2017-11-04T09:00:00Z,28.3507,-96.0058,2.0,5.105851887,2.921592032,-99999.0,'11133222,11111222,99999999' 
TABS,ioos:station:wmo:42049:1,2017-11-04T09:30:00Z,28.3507,-96.0058,2.0,76.3209895,1.945173514,-99999.0,'11133222,11111222,99999999' 
TABS,ioos:station:wmo:42049:1,2017-11-04T10:00:00Z,28.3507,-96.0058,2.0,23.78218527,0.644748013,-99999.0,'11133222,11111222,99999999' 
TABS,ioos:station:wmo:42049:1,2017-11-04T10:30:00Z,28.3507,-96.0058,2.0,107.3116056,0.806535802,-99999.0,'11133222,11111222,99999999' 
TABS,ioos:station:wmo:42049:1,2017-11-04T11:00:00Z,28.3507,-96.0058,2.0,165.29152,2.481310138,-99999.0,'11133222,11111222,99999999' 
TABS,ioos:station:wmo:42049:1,2017-11-04T11:30:00Z,28.3507,-96.0058,2.0,171.6859197,3.52706677,-99999.0,'11133222,11111222,99999999' 
TABS,ioos:station:wmo:42049:1,2017-11-04T12:00:00Z,28.3507,-96.0058,2.0,212.5975582,4.510532119,-99999.0,'11133222,11111222,99999999' 
TABS,ioos:station:wmo:42049:1,2017-11-04T12:30:00Z,28.3507,-96.0058,2.0,214.8277689,5.725635336,-99999.0,'11133222,11111222,99999999' 
TABS,ioos:station:wmo:42049:1,2017-11-04T13:00:00Z,28.3507,-96.0058,2.0,227.9791611,6.393817326,-99999.0,'11133222,11111222,99999999' 
TABS,ioos:station:wmo:42049:1,2017-11-04T13:30:00Z,28.3507,-96.0058,2.0,213.2212724,8.140497528,-99999.0,'11133222,11111222,99999999' 
TABS,ioos:station:wmo:42049:1,2017-11-04T14:00:00Z,28.3507,-96.0058,2.0,216.2177004,7.73450063,-99999.0,'11133222,11111222,99999999' 
TABS,ioos:station:wmo:42049:1,2017-11-04T14:30:00Z,28.3507,-96.0058,2.0,207.3554027,9.074827822,-99999.0,'11133222,11111222,99999999' 
TABS,ioos:station:wmo:42049:1,2017-11-04T15:00:00Z,28.3507,-96.0058,2.0,214.0900907,9.527208405,-99999.0,'11133222,11111222,99999999' 
TABS,ioos:station:wmo:42049:1,2017-11-04T15:30:00Z,28.3507,-96.0058,2.0,225.5834625,9.716151501,-99999.0,'11133222,11111222,99999999' 
TABS,ioos:station:wmo:42049:1,2017-11-04T16:00:00Z,28.3507,-96.0058,2.0,219.1046169,10.05164663,-99999.0,'11111222,11111222,99999999' 
TABS,ioos:station:wmo:42049:1,2017-11-04T16:30:00Z,28.3507,-96.0058,2.0,239.1670461,11.23833173,-99999.0,'11111222,11111222,99999999' 
TABS,ioos:station:wmo:42049:1,2017-11-04T17:00:00Z,28.3507,-96.0058,2.0,244.3429386,7.898784717,-99999.0,'11133222,11111222,99999999' 
TABS,ioos:station:wmo:42049:1,2017-11-04T17:30:00Z,28.3507,-96.0058,2.0,241.5367881,10.53318565,-99999.0,'11111222,11111222,99999999' 
TABS,ioos:station:wmo:42049:1,2017-11-04T18:00:00Z,28.3507,-96.0058,2.0,245.4940431,8.462275108,-99999.0,'11133222,11111222,99999999' 